Temp
-8 -8 -8 -7 -8 -8 -9 -10 -10 -11 -10 -9 -10 -11 -11 -11 -11 -11 -11 -11 -12 -13 -12 -12 -11 -11 -11 -12 -12 -12 -11 -11 -11 -11 -11 -11 -11 -11 -11 -11 -11 -11 -11 -10
-8 -8 -8 -8 -8 -9 -9 -9 -10 -11 -10 -9 -11 -10 -11 -12 -12 -12 -12 -13 -12 -14 -13 -13 -13 -13 -12 -12 -12 -12 -12 -12 -12 -12 -12 -12 -12 -12 -12 -12 -12 -12 -12 -12
-8 -8 -8 -8 -9 -9 -9 -9 -9 -9 -9 -10 -11 -10 -12 -13 -13 -12 -12 -14 -13 -13 -13 -12 -13 -13 -13 -13 -13 -12 -12 -13 -13 -12 -12 -12 -12 -12 -12 -12 -12 -12 -12 -12
-8 -8 -8 -8 -8 -9 -9 -9 -9 -9 -10 -11 -11 -10 -13 -11 -13 -13 -14 -14 -14 -14 -14 -13 -12 -13 -13 -14 -13 -13 -13 -13 -13 -13 -13 -12 -12 -13 -13 -13 -13 -13 -13 -13
-9 -9 -9 -9 -9 -9 -9 -10 -9 -10 -10 -11 -11 -12 -11 -12 -12 -13 -13 -13 -14 -13 -14 -13 -13 -14 -14 -14 -13 -13 -13 -13 -13 -13 -13 -12 -13 -13 -13 -13 -13 -13 -13 -13
-9 -9 -9 -9 -9 -9 -9 -9 -10 -10 -11 -11 -11 -13 -12 -12 -13 -13 -13 -14 -14 -14 -13 -14 -14 -14 -14 -14 -14 -13 -13 -13 -13 -13 -13 -13 -13 -13 -13 -13 -13 -13 -13 -13
-10 -10 -10 -10 -10 -10 -10 -10 -10 -11 -10 -11 -12 -13 -14 -13 -12 -13 -14 -14 -14 -14 -14 -14 -14 -14 -14 -14 -14 -14 -14 -14 -14 -14 -14 -13 -13 -13 -13 -13 -13 -13 -13 -13
-10 -10 -9 -11 -10 -10 -10 -10 -10 -11 -12 -12 -13 -14 -13 -13 -13 -12 -13 -14 -14 -15 -14 -14 -14 -14 -14 -14 -14 -14 -14 -14 -14 -14 -14 -14 -14 -14 -14 -14 -13 -13 -13 -13
-11 -11 -10 -10 -11 -11 -11 -11 -11 -11 -12 -13 -13 -13 -13 -13 -14 -14 -14 -14 -15 -15 -14 -15 -14 -14 -14 -14 -14 -14 -14 -14 -14 -14 -14 -14 -14 -14 -14 -14 -14 -13 -13 -13
-12 -12 -11 -11 -11 -11 -12 -12 -11 -12 -12 -12 -14 -13 -13 -12 -13 -14 -14 -14 -15 -15 -15 -15 -14 -14 -14 -14 -14 -14 -14 -14 -14 -14 -13 -13 -14 -14 -14 -14 -14 -13 -13 -13
-12 -11 -12 -11 -12 -12 -12 -12 -12 -12 -12 -12 -12 -13 -13 -13 -13 -13 -14 -14 -14 -15 -15 -15 -15 -14 -14 -14 -14 -14 -14 -14 -14 -14 -14 -14 -14 -14 -14 -13 -13 -13 -13 -13
-12 -12 -12 -12 -13 -12 -12 -13 -13 -12 -13 -13 -13 -12 -14 -14 -13 -14 -15 -15 -15 -15 -15 -15 -14 -14 -14 -14 -14 -14 -14 -14 -14 -14 -14 -13 -14 -13 -13 -13 -13 -12 -13 -13
-12 -12 -13 -13 -13 -14 -14 -13 -14 -13 -13 -13 -14 -13 -14 -14 -14 -13 -14 -15 -15 -15 -15 -15 -15 -15 -14 -14 -14 -14 -14 -14 -14 -14 -14 -14 -13 -13 -13 -13 -13 -12 -11 -12
-13 -13 -13 -13 -13 -14 -13 -13 -13 -14 -13 -13 -14 -14 -15 -14 -13 -14 -14 -14 -15 -15 -15 -15 -15 -15 -14 -14 -14 -14 -14 -14 -14 -14 -13 -13 -13 -12 -13 -13 -13 -12 -12 -12
-13 -13 -13 -13 -14 -14 -14 -14 -15 -14 -14 -15 -15 -15 -16 -14 -14 -15 -15 -15 -15 -15 -15 -15 -15 -14 -14 -13 -13 -14 -14 -14 -13 -13 -14 -13 -12 -12 -13 -13 -13 -13 -13 -13
-13 -13 -13 -13 -14 -14 -14 -14 -14 -15 -15 -15 -16 -16 -15 -15 -15 -15 -14 -15 -15 -15 -15 -15 -14 -14 -13 -13 -13 -14 -14 -14 -13 -13 -13 -13 -13 -12 -13 -13 -13 -13 -13 -13
-13 -14 -14 -14 -14 -14 -14 -15 -16 -16 -16 -16 -15 -15 -15 -15 -15 -15 -16 -16 -15 -15 -14 -15 -14 -14 -13 -13 -14 -13 -14 -13 -13 -13 -13 -13 -13 -13 -14 -13 -14 -14 -14 -14
-14 -14 -14 -14 -15 -14 -15 -16 -16 -16 -16 -15 -16 -15 -16 -15 -16 -16 -16 -15 -15 -14 -15 -15 -15 -14 -14 -14 -14 -14 -14 -14 -13 -13 -13 -14 -14 -14 -14 -14 -14 -15 -13 -14
-14 -15 -15 -15 -14 -14 -15 -15 -15 -15 -15 -16 -16 -16 -16 -16 -17 -16 -16 -16 -15 -15 -15 -15 -14 -14 -14 -14 -14 -14 -14 -13 -13 -14 -14 -14 -14 -15 -15 -14 -14 -14 -14 -14
-15 -15 -15 -15 -15 -15 -16 -15 -15 -15 -15 -16 -16 -16 -16 -16 -16 -16 -16 -16 -15 -15 -15 -15 -14 -14 -14 -14 -14 -14 -13 -13 -14 -14 -14 -15 -15 -15 -15 -14 -14 -14 -14 -14
-16 -15 -15 -15 -15 -15 -15 -15 -15 -16 -16 -16 -15 -15 -16 -16 -16 -16 -15 -15 -15 -15 -15 -15 -15 -15 -15 -14 -14 -13 -13 -13 -14 -14 -15 -15 -15 -14 -14 -15 -14 -14 -14 -14
-16 -16 -16 -16 -16 -15 -15 -16 -16 -16 -15 -16 -16 -16 -16 -16 -16 -16 -16 -15 -15 -15 -15 -15 -15 -15 -15 -14 -14 -13 -13 -13 -14 -14 -14 -15 -15 -15 -14 -15 -14 -14 -14 -14
-17 -16 -16 -16 -16 -16 -16 -16 -16 -16 -16 -16 -16 -16 -16 -16 -16 -16 -15 -16 -15 -15 -15 -15 -15 -15 -14 -14 -14 -13 -13 -14 -14 -14 -14 -15 -15 -15 -15 -14 -14 -14 -14 -14
-18 -17 -16 -16 -16 -16 -16 -16 -15 -16 -15 -15 -16 -17 -16 -16 -15 -16 -16 -16 -16 -15 -15 -15 -15 -15 -14 -14 -14 -14 -14 -14 -15 -14 -15 -15 -15 -15 -15 -14 -14 -14 -15 -14
-17 -17 -17 -17 -17 -17 -16 -16 -16 -16 -16 -16 -16 -16 -16 -16 -16 -16 -16 -16 -16 -15 -15 -15 -15 -15 -14 -14 -14 -14 -14 -14 -14 -14 -15 -15 -15 -15 -15 -14 -15 -14 -14 -14
-18 -17 -17 -17 -17 -17 -17 -16 -16 -17 -17 -16 -16 -16 -16 -17 -17 -16 -16 -16 -16 -15 -15 -15 -15 -14 -14 -14 -14 -14 -14 -14 -14 -14 -14 -15 -14 -15 -14 -14 -14 -13 -14 -14
Height
5856 5855 5855 5854 5853 5852 5852 5853 5852 5849 5849 5848 5845 5845 5843 5836 5833 5830 5829 5826 5823 5819 5814 5813 5810 5807 5806 5804 5800 5797 5795 5792 5789 5787 5786 5784 5782 5780 5778 5775 5773 5773 5773 5773
5852 5851 5851 5850 5850 5850 5850 5851 5851 5851 5846 5846 5843 5843 5840 5837 5829 5824 5821 5821 5816 5813 5809 5808 5804 5801 5797 5794 5792 5790 5787 5784 5780 5778 5775 5773 5771 5769 5767 5764 5762 5759 5760 5759
5848 5849 5848 5847 5847 5848 5847 5847 5846 5846 5843 5841 5837 5835 5833 5831 5828 5823 5820 5817 5814 5811 5808 5804 5798 5795 5790 5786 5784 5782 5780 5776 5772 5770 5767 5763 5760 5757 5755 5753 5751 5748 5746 5746
5845 5845 5845 5844 5844 5845 5843 5843 5842 5841 5840 5838 5833 5832 5829 5825 5822 5821 5820 5817 5812 5806 5801 5796 5791 5788 5783 5780 5777 5775 5773 5769 5765 5761 5758 5754 5751 5748 5743 5739 5738 5736 5734 5734
5841 5841 5841 5840 5840 5839 5839 5839 5837 5836 5835 5832 5830 5828 5824 5823 5820 5817 5815 5813 5806 5800 5795 5790 5783 5779 5776 5773 5769 5766 5763 5760 5756 5752 5747 5744 5740 5737 5734 5730 5726 5723 5721 5720
5836 5837 5837 5836 5836 5835 5834 5833 5832 5831 5830 5828 5824 5822 5819 5817 5816 5812 5809 5806 5801 5797 5788 5784 5779 5776 5771 5766 5761 5757 5754 5751 5746 5740 5734 5731 5727 5724 5721 5718 5714 5711 5708 5707
5831 5831 5831 5831 5831 5830 5829 5828 5828 5827 5823 5821 5818 5818 5815 5812 5808 5808 5806 5800 5795 5791 5783 5777 5773 5771 5764 5759 5753 5748 5745 5740 5735 5728 5723 5718 5713 5709 5706 5704 5701 5698 5694 5693
5824 5823 5826 5827 5826 5825 5824 5823 5823 5821 5820 5819 5818 5814 5810 5807 5804 5800 5796 5792 5788 5784 5779 5774 5769 5761 5755 5750 5745 5740 5735 5730 5723 5717 5712 5706 5700 5695 5692 5688 5686 5684 5682 5679
5819 5815 5818 5820 5821 5820 5819 5816 5818 5816 5815 5815 5814 5808 5806 5802 5799 5796 5793 5789 5783 5777 5771 5767 5760 5754 5748 5743 5738 5732 5726 5720 5712 5706 5700 5694 5688 5682 5677 5673 5670 5669 5668 5667
5813 5812 5814 5813 5815 5814 5813 5811 5810 5808 5807 5807 5809 5804 5800 5796 5793 5790 5786 5780 5776 5770 5764 5758 5753 5748 5741 5736 5731 5724 5717 5710 5702 5695 5688 5681 5674 5667 5662 5658 5655 5652 5652 5653
5806 5809 5811 5804 5811 5807 5808 5805 5804 5803 5802 5799 5799 5801 5795 5790 5787 5783 5781 5775 5768 5763 5759 5753 5747 5741 5735 5730 5723 5715 5709 5702 5692 5683 5675 5667 5660 5653 5647 5642 5638 5636 5636 5637
5801 5803 5804 5801 5804 5801 5800 5800 5798 5796 5798 5795 5793 5794 5791 5784 5780 5777 5773 5769 5764 5760 5753 5747 5741 5736 5731 5723 5716 5709 5701 5690 5681 5671 5661 5652 5644 5637 5631 5625 5621 5619 5619 5620
5795 5795 5797 5797 5800 5794 5794 5795 5794 5792 5789 5790 5787 5787 5783 5776 5773 5769 5765 5762 5758 5753 5746 5738 5735 5730 5722 5715 5708 5700 5690 5680 5669 5658 5647 5637 5628 5619 5616 5612 5608 5605 5604 5606
5786 5787 5788 5791 5790 5788 5784 5787 5788 5788 5786 5784 5781 5779 5773 5769 5766 5762 5758 5754 5752 5746 5738 5733 5729 5722 5713 5707 5698 5689 5679 5669 5657 5646 5633 5619 5607 5602 5599 5598 5597 5594 5593 5593
5778 5779 5779 5781 5784 5782 5780 5780 5780 5779 5778 5776 5775 5772 5764 5761 5758 5755 5751 5750 5746 5739 5734 5728 5721 5712 5705 5699 5689 5680 5671 5660 5646 5633 5617 5601 5591 5589 5588 5588 5586 5584 5583 5584
5772 5772 5771 5773 5776 5776 5774 5774 5775 5774 5773 5770 5768 5765 5755 5757 5752 5750 5748 5742 5737 5731 5727 5721 5711 5702 5697 5688 5680 5670 5660 5648 5634 5620 5605 5595 5588 5584 5581 5580 5579 5577 5576 5576
5763 5765 5764 5766 5766 5766 5769 5771 5768 5767 5766 5760 5759 5756 5751 5749 5749 5747 5739 5734 5729 5725 5721 5712 5701 5694 5687 5679 5670 5661 5649 5636 5622 5610 5600 5593 5587 5581 5578 5576 5574 5572 5571 5572
5752 5754 5755 5756 5757 5758 5762 5760 5759 5758 5756 5755 5753 5747 5743 5742 5743 5739 5734 5726 5721 5717 5712 5702 5693 5686 5678 5671 5662 5652 5640 5628 5615 5601 5594 5589 5584 5580 5578 5576 5573 5573 5571 5571
5744 5745 5746 5748 5750 5753 5756 5752 5752 5751 5750 5750 5747 5745 5741 5740 5737 5733 5727 5718 5714 5712 5705 5695 5688 5679 5671 5664 5655 5645 5633 5620 5608 5599 5593 5589 5585 5582 5580 5578 5575 5574 5574 5573
5736 5738 5739 5741 5741 5742 5746 5742 5743 5742 5742 5742 5739 5737 5736 5736 5732 5728 5719 5716 5713 5708 5698 5689 5682 5673 5665 5657 5648 5638 5626 5614 5604 5598 5594 5589 5587 5585 5583 5582 5580 5577 5577 5576
5729 5730 5732 5734 5733 5735 5735 5734 5736 5737 5737 5732 5730 5731 5731 5729 5725 5718 5712 5709 5707 5701 5690 5684 5676 5669 5661 5652 5642 5631 5620 5609 5602 5598 5594 5592 5589 5587 5587 5585 5582 5582 5582 5581
5723 5724 5725 5727 5727 5728 5729 5728 5730 5729 5726 5726 5724 5726 5722 5719 5716 5710 5706 5704 5702 5695 5687 5680 5672 5665 5657 5648 5638 5625 5615 5605 5602 5598 5594 5594 5592 5591 5589 5588 5587 5586 5585 5584
5716 5717 5719 5721 5721 5721 5722 5721 5721 5721 5722 5723 5719 5718 5714 5712 5708 5704 5701 5700 5696 5689 5683 5675 5669 5661 5653 5644 5634 5623 5613 5607 5603 5601 5598 5596 5594 5594 5593 5591 5590 5589 5588 5587
5709 5708 5709 5712 5715 5714 5714 5714 5715 5717 5717 5717 5716 5708 5708 5705 5701 5699 5697 5695 5690 5685 5680 5673 5666 5659 5651 5643 5634 5625 5615 5611 5606 5605 5602 5600 5597 5596 5595 5593 5592 5592 5591 5591
5700 5704 5704 5705 5704 5705 5707 5708 5708 5710 5709 5707 5705 5704 5701 5699 5696 5693 5693 5690 5685 5681 5676 5670 5664 5657 5649 5641 5633 5625 5619 5613 5610 5607 5604 5602 5600 5599 5598 5597 5596 5596 5596 5597
5694 5695 5696 5698 5699 5701 5702 5699 5701 5700 5699 5698 5698 5695 5695 5693 5691 5688 5687 5685 5680 5677 5672 5667 5661 5654 5647 5640 5632 5625 5619 5615 5610 5607 5606 5605 5603 5602 5602 5601 5601 5601 5601 5602
Wind_Speed
9 7 8 5 3 2 4 9 15 19 25 21 22 18 21 28 29 32 32 34 33 36 27 34 34 36 35 33 36 39 39 39 40 42 43 45 46 49 51 53 56 58 60 60
9 6 5 4 3 4 5 7 11 18 23 18 17 18 17 15 28 32 35 42 39 31 30 44 36 34 32 31 33 34 35 36 38 39 39 39 40 42 46 49 52 54 56 57
9 5 6 6 6 6 8 8 10 10 16 15 20 20 17 16 22 30 35 41 40 27 44 43 35 31 33 32 35 35 34 34 36 37 35 35 38 41 43 45 48 51 52 54
11 8 9 9 10 9 11 9 8 11 12 10 18 14 13 19 26 30 32 37 39 40 45 45 42 35 35 35 38 34 32 35 36 36 37 37 36 37 37 41 48 47 49 51
14 10 12 12 11 12 13 9 11 12 12 12 8 11 20 18 24 28 38 36 39 43 46 44 45 43 40 38 40 41 41 38 37 39 40 41 40 43 42 39 42 48 48 48
16 14 13 14 14 13 14 13 13 13 15 10 9 13 23 27 27 35 36 37 42 45 49 46 43 47 44 43 42 40 38 39 42 44 46 45 47 48 46 45 43 42 48 47
18 18 16 17 16 15 15 16 14 15 16 10 12 16 19 29 35 35 37 40 42 45 47 47 45 46 42 42 44 44 43 44 44 45 47 47 48 48 48 46 43 41 43 48
20 22 17 13 17 17 18 18 17 15 13 13 13 20 29 33 34 35 39 41 41 39 46 44 44 44 45 43 42 41 42 43 44 45 45 45 48 49 48 47 47 43 39 44
18 24 21 16 15 20 18 22 18 19 18 13 17 25 26 30 33 36 37 37 39 41 43 40 39 39 41 41 41 41 41 43 46 47 47 48 48 49 48 48 47 46 43 38
22 26 25 25 19 20 21 24 23 24 24 22 14 21 29 31 33 34 35 40 40 39 39 38 38 38 39 40 37 38 41 46 48 48 48 48 48 48 48 48 46 47 44 44
27 25 23 31 18 23 23 25 25 25 26 27 28 22 28 32 35 36 33 37 37 33 38 37 37 37 37 38 38 41 44 47 50 52 52 53 52 51 49 47 45 47 47 48
23 26 24 29 22 29 26 20 24 29 26 27 30 28 23 32 35 33 32 34 30 38 40 42 36 35 35 38 40 44 47 51 55 58 57 56 57 54 49 44 44 46 47 48
23 26 25 25 21 27 27 26 26 28 28 26 32 30 27 32 34 35 35 36 38 45 44 41 37 35 38 40 41 46 50 55 60 64 62 60 63 64 54 45 37 35 40 43
27 29 27 25 26 32 35 30 27 27 32 31 32 32 36 37 37 33 33 41 40 47 44 42 38 38 41 43 47 50 55 60 65 68 67 69 59 50 43 34 32 34 32 30
29 29 30 28 25 30 32 32 32 33 34 34 31 32 36 35 34 34 33 39 43 44 41 38 37 40 43 45 49 52 57 62 68 65 67 52 35 28 26 25 27 26 25 28
27 25 27 28 25 28 32 31 31 31 29 31 30 27 35 31 31 30 39 45 45 43 42 40 39 42 43 48 51 55 60 64 63 74 52 37 28 24 25 23 24 20 19 18
30 25 25 23 24 28 29 23 31 31 24 28 27 28 37 39 37 41 44 46 45 44 43 45 45 45 45 49 51 56 60 64 64 62 38 27 27 22 15 16 15 11 8 9
35 34 32 32 28 28 21 23 25 25 27 26 32 39 43 40 34 38 44 47 48 47 48 50 51 48 45 46 50 55 60 59 66 41 30 24 18 15 10 11 9 10 9 6
36 27 21 22 21 22 19 25 28 27 28 28 32 36 39 28 33 41 45 50 49 48 48 51 47 44 43 45 50 55 56 57 48 29 19 16 16 12 9 11 8 8 12 14
21 18 19 21 25 25 17 26 25 27 30 30 33 35 32 40 42 44 46 46 45 45 47 48 43 42 43 46 50 51 53 53 28 18 15 13 7 9 8 13 16 17 19 18
19 20 19 16 19 19 19 26 23 25 28 29 29 34 35 39 41 41 44 45 43 43 45 43 41 41 42 45 47 49 51 40 18 15 12 9 10 10 9 7 12 18 13 7
16 21 21 18 18 21 18 22 22 22 27 36 37 27 33 36 39 45 45 44 40 40 42 39 39 40 43 43 45 49 42 23 10 15 9 4 6 8 11 9 10 12 10 11
24 27 27 23 23 25 23 27 29 32 28 28 22 32 42 44 48 42 40 39 37 38 38 37 37 39 39 40 44 42 26 12 6 12 8 5 6 7 6 8 9 10 12 16
30 31 32 25 22 25 25 26 26 28 28 27 32 37 39 39 38 35 35 34 34 35 34 34 35 35 35 38 39 34 17 18 5 7 13 12 12 7 8 8 11 12 15 15
34 29 26 26 27 26 26 27 28 25 25 28 32 30 29 31 33 31 29 31 33 33 31 31 32 32 33 36 35 26 28 18 3 7 13 12 9 11 12 14 15 14 14 14
31 27 30 30 27 27 26 31 29 28 29 30 27 27 27 27 27 30 29 29 30 29 28 29 29 29 31 33 31 23 23 21 13 5 3 9 13 13 13 14 15 13 8 5
Wind_Direction
261 257 275 271 303 319 284 243 256 264 287 315 324 324 310 311 308 310 321 322 314 316 328 332 311 302 295 297 295 294 293 289 285 283 282 280 278 277 275 272 269 269 268 268
263 274 263 280 285 264 251 258 249 250 274 317 310 319 318 306 311 314 325 335 324 313 326 327 310 302 302 302 301 297 295 292 290 289 289 289 284 280 276 275 275 273 271 269
263 278 264 265 267 261 253 257 262 283 306 324 315 327 319 299 284 305 324 328 322 314 310 319 311 307 306 312 309 302 298 295 294 293 292 293 294 289 283 277 273 272 271 271
263 270 271 265 271 263 273 278 289 296 307 301 302 335 287 304 292 300 313 309 310 307 311 315 317 313 306 318 309 303 300 298 294 291 286 286 290 292 292 287 276 273 269 268
273 271 274 268 280 270 281 277 287 293 297 301 295 293 314 291 295 295 301 312 305 307 319 314 324 325 318 311 303 302 300 301 299 296 292 288 288 292 290 289 291 272 268 269
266 265 264 269 269 270 277 277 284 293 283 291 303 316 302 300 296 298 310 302 304 303 310 313 317 320 315 313 309 307 304 306 304 301 297 294 290 288 285 285 286 286 267 266
264 261 259 263 265 270 276 277 281 278 295 309 300 284 280 290 298 306 302 304 308 306 305 308 307 315 309 311 312 311 313 309 302 296 294 293 291 290 286 282 282 282 274 262
265 267 262 260 268 272 271 276 281 290 284 277 266 277 285 289 295 303 306 303 303 296 300 306 312 314 315 316 314 315 312 308 304 301 299 295 292 289 286 286 279 277 278 265
268 263 275 279 269 273 282 280 287 281 279 266 248 256 270 279 285 292 296 305 305 304 309 315 313 315 318 318 318 316 314 312 310 309 306 302 298 294 290 285 280 273 272 273
256 259 271 272 274 271 273 276 279 283 282 288 260 276 294 305 303 304 306 304 303 302 319 315 314 316 318 317 317 315 318 318 317 312 311 308 302 296 292 287 281 272 267 267
255 260 262 270 270 266 262 267 273 276 287 292 296 303 305 300 303 301 303 307 310 306 318 316 316 317 319 316 317 321 319 321 320 317 314 311 308 304 299 291 283 273 263 262
264 266 260 273 273 276 280 273 280 285 284 287 296 304 300 294 297 309 301 292 305 300 316 316 313 315 313 313 318 316 320 322 323 321 317 313 309 307 303 296 287 273 268 264
271 266 264 262 265 269 266 267 268 273 282 291 292 303 304 294 301 308 311 301 304 320 312 309 314 310 307 310 315 317 322 324 324 321 317 312 308 303 300 294 292 283 271 267
270 266 265 260 257 258 272 275 274 265 277 289 298 305 302 297 302 297 302 315 317 310 316 315 312 306 302 310 313 319 323 324 322 320 317 309 302 299 297 287 292 285 277 272
260 261 261 259 251 259 267 272 274 282 288 295 302 303 295 296 303 299 296 312 307 311 321 316 311 301 304 310 313 319 322 322 322 321 322 319 315 307 300 294 300 286 277 271
258 266 261 263 256 255 258 263 271 280 284 283 283 277 280 292 296 292 301 306 308 315 321 324 311 305 308 310 316 319 322 323 326 325 327 326 328 313 298 297 300 297 284 280
261 251 257 258 256 255 260 272 266 272 279 272 276 267 282 280 280 301 302 304 307 313 319 323 318 314 314 315 318 321 323 326 327 326 326 330 331 332 328 320 322 322 306 285
264 268 264 252 251 263 276 273 272 261 272 264 275 281 292 287 293 299 303 301 307 317 323 323 320 321 316 319 322 323 326 327 327 326 322 328 334 344 12 22 15 27 10 354
272 270 267 259 255 269 274 271 277 270 273 272 275 275 291 278 302 302 302 304 310 316 320 316 322 322 321 323 324 326 326 330 331 332 343 355 10 39 46 33 46 77 88 52
243 258 267 271 270 270 273 268 272 276 267 279 284 280 272 280 294 293 293 300 311 318 321 320 326 324 327 325 325 326 331 333 332 339 355 13 22 40 48 42 74 80 83 67
259 264 260 263 265 272 266 278 286 283 282 281 276 285 289 292 296 295 298 306 317 322 317 325 326 327 328 328 328 332 336 335 339 346 358 42 54 54 29 359 32 36 60 68
256 257 266 261 267 273 284 285 278 274 285 298 275 291 296 294 306 300 300 311 319 319 319 325 326 328 329 331 336 339 338 342 6 9 22 54 88 71 78 34 38 31 46 56
234 255 261 255 244 266 256 276 284 260 289 295 267 291 292 290 292 295 298 311 316 315 322 326 329 330 333 337 344 343 349 353 43 14 17 17 71 60 49 45 37 61 77 78
241 250 254 259 257 260 260 267 266 273 289 294 284 285 291 295 293 301 306 308 315 316 323 327 329 333 335 343 350 0 3 355 46 62 64 69 75 74 57 71 74 86 92 84
235 252 252 258 261 255 266 276 282 289 288 288 286 294 290 293 298 299 303 310 313 318 323 328 329 334 338 347 351 350 8 4 23 116 47 79 73 87 89 89 78 78 93 86
242 234 253 261 263 262 275 277 286 293 291 292 297 292 295 293 296 298 303 313 315 320 324 328 330 336 341 347 353 358 7 9 7 359 301 99 84 77 87 68 73 72 57 89